When you browse on this site, cookies collect data to enhance your experience and personalize the content and advertising you see.
Visit our Privacy Policy to learn more. By continuing to use the site, you agree to this use of cookies and data.

Hourly Weather Yasyutevichi

Today, 7 July, Tuesday

Time Temperature Precipitation Wind Pressure Humidity
00:00 +19°C° 0.3 mm 3 mps 733 mmHg 94%
01:00 +18°C° 0.3 mm 3 mps 733 mmHg 93%
02:00 +16°C° 0 mm 6 mps 734 mmHg 88%
03:00 +15°C° 1.2 mm 5 mps 734 mmHg 90%
04:00 +14°C° 1.2 mm 4 mps 734 mmHg 92%
05:00 +14°C° 1.2 mm 4 mps 734 mmHg 95%
06:00 +13°C° 1.2 mm 4 mps 735 mmHg 94%
07:00 +13°C° 1.2 mm 4 mps 735 mmHg 93%
08:00 +13°C° 1.2 mm 3 mps 735 mmHg 92%
09:00 +12°C° 0.6 mm 3 mps 736 mmHg 92%
10:00 +12°C° 0.6 mm 3 mps 736 mmHg 92%
11:00 +12°C° 0.6 mm 3 mps 736 mmHg 91%
12:00 +13°C° 0.1 mm 3 mps 736 mmHg 88%
13:00 +14°C° 0.1 mm 2 mps 736 mmHg 85%
14:00 +15°C° 0.1 mm 1 mps 736 mmHg 81%
15:00 +16°C° 0.1 mm 2 mps 736 mmHg 80%
16:00 +16°C° 0.1 mm 2 mps 736 mmHg 79%
17:00 +17°C° 0.1 mm 2 mps 736 mmHg 78%
18:00 +16°C° 0.2 mm 2 mps 736 mmHg 81%
19:00 +15°C° 0.2 mm 2 mps 736 mmHg 85%
20:00 +15°C° 0.2 mm 2 mps 736 mmHg 88%
21:00 +13°C° 0 mm 3 mps 736 mmHg 89%
22:00 +12°C° 0 mm 3 mps 736 mmHg 89%
23:00 +12°C° 0 mm 4 mps 736 mmHg 89%

Tomorrow, 8 July, Wednesday

Time Temperature Precipitation Wind Pressure Humidity
00:00 +11°C° 0 mm 4 mps 737 mmHg 91%
01:00 +10°C° 0 mm 3 mps 737 mmHg 92%
02:00 +10°C° 0 mm 3 mps 737 mmHg 94%
03:00 +9°C° 0 mm 3 mps 737 mmHg 94%
04:00 +9°C° 0 mm 3 mps 737 mmHg 95%
05:00 +9°C° 0 mm 3 mps 737 mmHg 96%
06:00 +10°C° 0 mm 4 mps 737 mmHg 91%
07:00 +12°C° 0 mm 4 mps 737 mmHg 87%
08:00 +13°C° 0 mm 4 mps 737 mmHg 82%
09:00 +14°C° 0 mm 4 mps 737 mmHg 76%
10:00 +15°C° 0 mm 4 mps 738 mmHg 70%
11:00 +18°C° 0 mm 4 mps 738 mmHg 64%
12:00 +18°C° 0 mm 4 mps 738 mmHg 63%
13:00 +18°C° 0 mm 4 mps 737 mmHg 61%
14:00 +19°C° 0 mm 4 mps 737 mmHg 60%
15:00 +18°C° 0.3 mm 4 mps 737 mmHg 66%
16:00 +17°C° 0.3 mm 4 mps 737 mmHg 73%
17:00 +17°C° 0.3 mm 4 mps 737 mmHg 79%
18:00 +16°C° 0.2 mm 3 mps 737 mmHg 83%
19:00 +14°C° 0.2 mm 3 mps 738 mmHg 87%
20:00 +14°C° 0.2 mm 2 mps 738 mmHg 90%
21:00 +13°C° 0 mm 2 mps 738 mmHg 92%
22:00 +11°C° 0 mm 3 mps 738 mmHg 93%
23:00 +10°C° 0 mm 3 mps 738 mmHg 94%

Day after tomorrow, 9 July, Thursday

Time Temperature Precipitation Wind Pressure Humidity
00:00 +10°C° 0 mm 2 mps 738 mmHg 95%
01:00 +10°C° 0 mm 2 mps 738 mmHg 95%
02:00 +10°C° 0 mm 2 mps 739 mmHg 95%
03:00 +10°C° 0 mm 2 mps 739 mmHg 95%
04:00 +10°C° 0 mm 2 mps 739 mmHg 96%
05:00 +10°C° 0 mm 2 mps 739 mmHg 96%
06:00 +12°C° 0 mm 2 mps 739 mmHg 93%
07:00 +12°C° 0 mm 3 mps 740 mmHg 89%
08:00 +14°C° 0 mm 3 mps 740 mmHg 86%
09:00 +15°C° 0.1 mm 4 mps 740 mmHg 80%
10:00 +17°C° 0.1 mm 4 mps 740 mmHg 73%
11:00 +18°C° 0.1 mm 4 mps 740 mmHg 67%
12:00 +17°C° 0 mm 5 mps 740 mmHg 64%
13:00 +19°C° 0 mm 5 mps 740 mmHg 62%
14:00 +19°C° 0 mm 5 mps 740 mmHg 59%
15:00 +19°C° 0 mm 4 mps 740 mmHg 61%
16:00 +19°C° 0 mm 4 mps 741 mmHg 63%
17:00 +19°C° 0 mm 4 mps 741 mmHg 65%
18:00 +18°C° 0.1 mm 3 mps 741 mmHg 71%
19:00 +16°C° 0.1 mm 3 mps 741 mmHg 77%
20:00 +15°C° 0.1 mm 2 mps 741 mmHg 83%
21:00 +14°C° 0 mm 2 mps 741 mmHg 85%
22:00 +13°C° 0 mm 2 mps 742 mmHg 88%
23:00 +12°C° 0 mm 2 mps 742 mmHg 91%

10 July, Friday

Time Temperature Precipitation Wind Pressure Humidity
00:00 +12°C° 0 mm 2 mps 742 mmHg 91%
01:00 +10°C° 0 mm 2 mps 742 mmHg 92%
02:00 +10°C° 0 mm 2 mps 742 mmHg 92%
03:00 +10°C° 0 mm 2 mps 742 mmHg 92%
04:00 +10°C° 0 mm 2 mps 742 mmHg 91%
05:00 +10°C° 0 mm 2 mps 742 mmHg 91%
06:00 +13°C° 0 mm 2 mps 742 mmHg 86%
07:00 +14°C° 0 mm 3 mps 742 mmHg 81%
08:00 +16°C° 0 mm 3 mps 742 mmHg 76%
09:00 +18°C° 0 mm 4 mps 742 mmHg 73%
10:00 +19°C° 0 mm 4 mps 742 mmHg 70%
11:00 +20°C° 0 mm 5 mps 742 mmHg 67%
12:00 +20°C° 0 mm 4 mps 742 mmHg 71%
13:00 +19°C° 0 mm 4 mps 741 mmHg 75%
14:00 +19°C° 0 mm 4 mps 741 mmHg 78%
15:00 +20°C° 0 mm 4 mps 741 mmHg 77%
16:00 +21°C° 0 mm 5 mps 740 mmHg 76%
17:00 +22°C° 0 mm 5 mps 740 mmHg 75%
18:00 +21°C° 0 mm 5 mps 739 mmHg 79%
19:00 +20°C° 0 mm 5 mps 739 mmHg 83%
20:00 +19°C° 0 mm 4 mps 739 mmHg 88%
21:00 +19°C° 0.2 mm 5 mps 739 mmHg 89%
22:00 +19°C° 0.2 mm 5 mps 738 mmHg 90%
23:00 +19°C° 0.2 mm 6 mps 738 mmHg 91%

11 July, Saturday

Time Temperature Precipitation Wind Pressure Humidity
00:00 +17°C° 0.3 mm 6 mps 738 mmHg 93%
01:00 +17°C° 0.3 mm 6 mps 738 mmHg 94%
02:00 +17°C° 0.3 mm 6 mps 737 mmHg 95%
03:00 +17°C° 0.4 mm 6 mps 738 mmHg 96%
04:00 +17°C° 0.4 mm 5 mps 738 mmHg 96%
05:00 +17°C° 0.4 mm 5 mps 738 mmHg 97%
06:00 +17°C° 0.1 mm 5 mps 738 mmHg 94%
07:00 +19°C° 0.1 mm 5 mps 738 mmHg 92%
08:00 +19°C° 0.1 mm 5 mps 739 mmHg 90%
09:00 +18°C° 0 mm 4 mps 739 mmHg 84%
10:00 +18°C° 0 mm 4 mps 740 mmHg 79%
11:00 +17°C° 0 mm 4 mps 740 mmHg 74%
12:00 +17°C° 0 mm 4 mps 740 mmHg 72%
13:00 +17°C° 0 mm 4 mps 740 mmHg 69%
14:00 +17°C° 0 mm 3 mps 740 mmHg 67%
15:00 +17°C° 0 mm 3 mps 741 mmHg 69%
16:00 +17°C° 0 mm 4 mps 741 mmHg 71%
17:00 +17°C° 0 mm 4 mps 741 mmHg 73%
18:00 +16°C° 0 mm 3 mps 741 mmHg 76%
19:00 +14°C° 0 mm 3 mps 741 mmHg 79%
20:00 +15°C° 0 mm 2 mps 741 mmHg 82%
21:00 +14°C° 0 mm 2 mps 741 mmHg 82%
22:00 +14°C° 0 mm 2 mps 741 mmHg 83%
23:00 +13°C° 0 mm 2 mps 742 mmHg 83%

12 July, Sunday

Time Temperature Precipitation Wind Pressure Humidity
00:00 +13°C° 0.3 mm 2 mps 742 mmHg 86%
01:00 +12°C° 0.3 mm 2 mps 742 mmHg 88%
02:00 +12°C° 0.3 mm 1 mps 742 mmHg 91%
03:00 +12°C° 0.7 mm 1 mps 742 mmHg 91%
04:00 +12°C° 0.7 mm 1 mps 742 mmHg 92%
05:00 +12°C° 0.7 mm 1 mps 742 mmHg 93%
06:00 +12°C° 0.1 mm 1 mps 742 mmHg 90%
07:00 +13°C° 0.1 mm 1 mps 742 mmHg 87%
08:00 +14°C° 0.1 mm 1 mps 742 mmHg 84%
09:00 +15°C° 0.1 mm 1 mps 742 mmHg 79%
10:00 +16°C° 0.1 mm 2 mps 742 mmHg 73%
11:00 +17°C° 0.1 mm 2 mps 742 mmHg 67%
12:00 +17°C° 0.2 mm 3 mps 742 mmHg 67%
13:00 +18°C° 0.2 mm 3 mps 742 mmHg 67%
14:00 +18°C° 0.2 mm 3 mps 742 mmHg 67%
15:00 +18°C° 0.2 mm 3 mps 742 mmHg 68%
16:00 +18°C° 0.2 mm 3 mps 741 mmHg 69%
17:00 +18°C° 0.2 mm 3 mps 741 mmHg 70%
18:00 +16°C° 0.1 mm 3 mps 741 mmHg 75%
19:00 +14°C° 0.1 mm 3 mps 741 mmHg 80%
20:00 +13°C° 0.1 mm 3 mps 741 mmHg 85%
21:00 +12°C° 0 mm 3 mps 741 mmHg 88%
22:00 +12°C° 0 mm 2 mps 741 mmHg 90%
23:00 +10°C° 0 mm 2 mps 741 mmHg 93%
Show more